Location: Betz
(49.1556°N, 2.9558°E)
Time: 04:11:44
(UTC+00:00)

MOS 1 - Pass Details

Date: 18 September 2019
Orbit: 878 x 892 km, 99.2° (Epoch: 18 October)

Event Time Altitude Azimuth Distance (km) Brightness Sun altitude
Rises 18:34:24 0° 151° (SSE) 3,491 7.0 -7.1°
Reaches altitude 10° 18:36:49 10° 148° (SSE) 2,554 6.3 -7.5°
Maximum altitude 18:42:25 63° 69° (ENE) 995 4.4 -8.4°
Drops below altitude 10° 18:48:02 10° 350° (N) 2,564 7.0 -9.3°
Sets 18:50:27 0° 347° (NNW) 3,506 7.8 -9.7°
